Time,TemperatureF,DewpointF,PressureIn,WindDirection,WindDirectionDegrees,WindSpeedMPH,WindSpeedGustMPH,Humidity,HourlyPrecipIn,Conditions,Clouds,dailyrainin,SoftwareType,DateUTC
2013-10-12 00:21:00,42.0,42.0,30.11,North,0,0.0,0.0,100,0.00,,,-99.99,,2013-10-12 07:21:00,
2013-10-12 00:52:00,42.0,42.0,30.11,North,0,0.0,0.0,100,0.00,,,-99.99,,2013-10-12 07:52:00,
2013-10-12 01:22:00,43.0,43.0,30.11,North,0,0.0,0.0,100,0.00,,,-99.99,,2013-10-12 08:22:00,
2013-10-12 01:52:00,43.0,43.0,30.11,North,0,0.0,0.0,100,0.00,,,-99.99,,2013-10-12 08:52:00,
2013-10-12 02:21:00,43.0,43.0,30.11,North,0,0.0,0.0,100,0.00,,,-99.99,,2013-10-12 09:21:00,
2013-10-12 02:54:00,44.0,44.0,30.11,North,0,0.0,0.0,100,0.00,,,-99.99,,2013-10-12 09:54:00,
2013-10-12 03:23:00,44.0,44.0,30.10,North,0,0.0,0.0,100,0.00,,,-99.99,,2013-10-12 10:23:00,
2013-10-12 03:52:00,44.0,44.0,30.09,North,0,0.0,0.0,100,0.00,,,-99.99,,2013-10-12 10:52:00,
2013-10-12 04:22:00,44.0,44.0,30.09,North,0,0.0,0.0,100,0.00,,,-99.99,,2013-10-12 11:22:00,
2013-10-12 04:52:00,45.0,45.0,30.09,North,0,0.0,0.0,100,0.00,,,-99.99,,2013-10-12 11:52:00,
2013-10-12 05:22:00,45.0,45.0,30.08,North,0,0.0,0.0,100,0.00,,,-99.99,,2013-10-12 12:22:00,
2013-10-12 05:52:00,45.0,45.0,30.07,North,0,0.0,0.0,100,0.00,,,-99.99,,2013-10-12 12:52:00,
2013-10-12 06:21:00,45.0,45.0,30.08,North,0,0.0,0.0,100,0.00,,,-99.99,,2013-10-12 13:21:00,
2013-10-12 06:52:00,45.0,45.0,30.08,North,0,0.0,0.0,100,0.00,,,-99.99,,2013-10-12 13:52:00,
2013-10-12 07:21:00,45.0,45.0,30.07,North,0,0.0,0.0,100,0.00,,,-99.99,,2013-10-12 14:21:00,
2013-10-12 07:52:00,46.0,46.0,30.07,North,0,0.0,0.0,100,0.01,,,-99.99,,2013-10-12 14:52:00,
2013-10-12 08:22:00,46.0,46.0,30.08,North,0,0.0,0.0,100,0.01,,,-99.99,,2013-10-12 15:22:00,
2013-10-12 08:53:00,47.0,47.0,30.08,North,0,0.0,0.0,100,0.01,,,-99.99,,2013-10-12 15:53:00,
2013-10-12 09:23:00,48.0,48.0,30.09,North,0,0.0,0.0,100,0.02,,,-99.99,,2013-10-12 16:23:00,
2013-10-12 09:53:00,48.0,48.0,30.09,North,0,0.0,0.0,100,0.06,,,-99.99,,2013-10-12 16:53:00,
2013-10-12 10:23:00,48.0,48.0,30.08,North,0,0.0,0.0,100,0.09,,,-99.99,,2013-10-12 17:23:00,
2013-10-12 10:53:00,49.0,49.0,30.08,North,0,0.0,0.0,100,0.05,,,-99.99,,2013-10-12 17:53:00,
2013-10-12 11:21:00,51.0,51.0,30.09,North,0,0.0,0.0,100,0.01,,,-99.99,,2013-10-12 18:21:00,
2013-10-12 11:52:00,52.0,52.0,30.09,North,0,0.0,0.0,100,0.00,,,-99.99,,2013-10-12 18:52:00,
2013-10-12 12:22:00,52.0,52.0,30.09,North,0,0.0,0.0,100,0.00,,,-99.99,,2013-10-12 19:22:00,
2013-10-12 12:52:00,55.0,54.0,30.09,North,0,0.0,0.0,97,0.00,,,-99.99,,2013-10-12 19:52:00,
2013-10-12 13:22:00,55.0,53.0,30.08,North,0,0.0,0.0,92,0.00,,,-99.99,,2013-10-12 20:22:00,
2013-10-12 13:52:00,55.0,53.0,30.08,North,0,0.0,0.0,92,0.00,,,-99.99,,2013-10-12 20:52:00,
2013-10-12 14:22:00,55.0,52.0,30.08,North,0,0.0,0.0,90,0.00,,,-99.99,,2013-10-12 21:22:00,
2013-10-12 14:54:00,55.0,52.0,30.08,North,0,0.0,0.0,91,0.00,,,-99.99,,2013-10-12 21:54:00,
2013-10-12 15:24:00,54.0,52.0,30.09,North,0,0.0,0.0,94,0.00,,,-99.99,,2013-10-12 22:24:00,
2013-10-12 15:54:00,54.0,52.0,30.10,North,0,0.0,0.0,93,0.00,,,-99.99,,2013-10-12 22:54:00,
2013-10-12 16:22:00,54.0,52.0,30.10,North,0,0.0,0.0,93,0.00,,,-99.99,,2013-10-12 23:22:00,
2013-10-12 16:52:00,55.0,53.0,30.11,North,0,0.0,0.0,93,0.00,,,-99.99,,2013-10-12 23:52:00,
2013-10-12 17:21:00,57.0,53.0,30.11,North,0,0.0,0.0,88,0.00,,,-99.99,,2013-10-13 00:21:00,
2013-10-12 17:52:00,55.0,52.0,30.11,North,0,0.0,0.0,90,0.00,,,-99.99,,2013-10-13 00:52:00,
2013-10-12 18:21:00,55.0,52.0,30.12,North,0,0.0,0.0,91,0.00,,,-99.99,,2013-10-13 01:21:00,
2013-10-12 18:52:00,53.0,51.0,30.12,North,0,0.0,0.0,94,0.02,,,-99.99,,2013-10-13 01:52:00,
2013-10-12 19:22:00,53.0,52.0,30.13,North,0,0.0,0.0,97,0.02,,,-99.99,,2013-10-13 02:22:00,
2013-10-12 19:52:00,52.0,52.0,30.14,North,0,0.0,0.0,99,0.00,,,-99.99,,2013-10-13 02:52:00,
2013-10-12 20:22:00,52.0,52.0,30.14,North,0,0.0,0.0,100,0.00,,,-99.99,,2013-10-13 03:22:00,
2013-10-12 20:54:00,51.0,51.0,30.15,North,0,0.0,0.0,100,0.00,,,-99.99,,2013-10-13 03:54:00,
2013-10-12 21:02:00,-999.0,-99.9,30.15,North,0,0.0,0.0,-999,-99.99,,,-99.99,,2013-10-13 04:02:00,
2013-10-12 21:23:00,51.0,51.0,30.16,North,0,0.0,0.0,100,0.00,,,-99.99,,2013-10-13 04:23:00,
2013-10-12 21:54:00,50.0,50.0,30.16,North,0,0.0,0.0,100,0.00,,,-99.99,,2013-10-13 04:54:00,
2013-10-12 22:23:00,48.0,48.0,30.16,North,0,0.0,0.0,100,0.00,,,-99.99,,2013-10-13 05:23:00,
2013-10-12 22:52:00,47.0,47.0,30.16,North,0,0.0,0.0,100,0.00,,,-99.99,,2013-10-13 05:52:00,
2013-10-12 23:21:00,47.0,47.0,30.17,North,0,0.0,0.0,100,0.00,,,-99.99,,2013-10-13 06:21:00,
2013-10-12 23:52:00,46.0,46.0,30.17,North,0,0.0,0.0,100,0.00,,,-99.99,,2013-10-13 06:52:00,